Regional Weather Roundup
Issued by NWS Goodland, KS

Home | Current Version | Previous Version | Text Only | Print | Product List | Glossary Off
Versions: 1 2 3 4 5 6 7 8 9 10 11 12 13 14 15 16 17 18 19 20 21 22 23 24 25 26 27 28 29 30 31 32 33 34 35 36 37 38 39 40 41 42 43 44 45 46 47 48 49 50

000
ASUS43 KGLD 110459
RWRGLD

GOODLAND FORECAST AREA HOURLY WEATHER ROUNDUP
NATIONAL WEATHER SERVICE GOODLAND KS
1000 PM MST SUN DEC 10 2017

...OFFICIAL OBSERVATIONS...

CITY           SKY/WX    TMP DP  RH WIND       PRES   REMARKS
GOODLAND KS    CLEAR     31   2  29 W10       30.27R
HILL CITY KS   CLEAR     38  11  32 W12       30.21R
IMPERIAL NEB   CLOUDY    39   6  25 W13       30.22S
MCCOOK NEB     CLOUDY    32  10  40 W12       30.20R
AKRON CO       CLOUDY    36  -3  19 W14       30.29S
BURLINGTON CO  CLEAR     28   2  32 W10       30.29S WCI  19
LIMON CO       CLOUDY    27  -3  27 VRB5      30.33S
$$

...UNOFFICIAL OBSERVATIONS...

CITY           SKY/WX    TMP DP  RH WIND       PRES   REMARKS
LENORA KS        N/A     42  32  68 W8          N/A
NORTON KS      CLEAR     36   3  25 SW7       30.18
SHARON SPRINGS   N/A     29   5  35 W9          N/A
TRENTON NEB      N/A     40  32  73 W6          N/A
KIT CARSON CO    N/A     33   2  26 MISG        N/A
YUMA CO        FAIR      30   1  29 W12       30.28S
$$




USA.gov is the U.S. government's official web portal to all federal, state and local government web resources and services.